Weather History for Tacoma Narrows, WA

Change the Weather History Date:

Wednesday, March 12, 2014

  Actual Average Record
Temperature  
Mean Temperature 48 °F -  
Max Temperature 61 °F 48 °F 62 °F (1998)
Min Temperature 37 °F 39 °F 32 °F (2009)
Degree Days  
Heating Degree Days 16    
Moisture  
Dew Point 38 °F    
Average Humidity 78    
Maximum Humidity 97    
Minimum Humidity 35    
Precipitation  
Precipitation 0.00 in - - ()
Sea Level Pressure  
Sea Level Pressure 30.31 in    
Wind  
Wind Speed 2 mph (North)    
Max Wind Speed 7 mph    
Max Gust Speed -    
Visibility 7 miles    
Events Fog    
Averages and records for this station are not official NWS values.
T = Trace of Precipitation, MM = Missing Value Source: NWS Daily Summary

Daily Weather History Graph

Daily Weather History Graph

Search for Another Location

Airport:

Trip Planner

Search our weather history database for the weather conditions in past years. The results will help you decide how hot, cold, wet, or windy it might be!

Date:

Astronomy

Mar. 12, 2014 Rise Set
Actual Time 7:28 AM PDT 7:11 PM PDT
Civil Twilight 6:58 AM PDT 7:42 PM PDT
Nautical Twilight 6:23 AM PDT 8:17 PM PDT
Astronomical Twilight 5:46 AM PDT 8:54 PM PDT
Moon 3:36 PM PDT (3/12) 5:15 AM PDT (3/12)
Length of Visible Light 12h 43m
Length of Day
11h 42m
Waxing Gibbous, 86% of the Moon is Illuminated
Mar 12
Waxing Gibbous
Mar 16
Full
Mar 23
Last Quarter
Mar 30
New
Apr 7
First Quarter

Hourly Weather History & Observations

Time (PDT) Temp. Windchill Dew Point Humidity Pressure Visibility Wind Dir Wind Speed Gust Speed Precip Events Conditions
12:53 AM 45.0 °F 42.6 °F 37.0 °F 74% 30.43 in 10.0 mi North 4.6 mph - N/A   Clear
1:53 AM 43.0 °F 41.3 °F 37.0 °F 80% 30.43 in 10.0 mi North 3.5 mph - N/A   Clear
2:53 AM 41.0 °F - 36.0 °F 82% 30.41 in 10.0 mi Calm Calm - N/A   Clear
3:53 AM 42.1 °F - 37.9 °F 85% 30.40 in 10.0 mi Calm Calm - N/A   Clear
4:53 AM 39.9 °F - 37.0 °F 89% 30.38 in 10.0 mi Calm Calm - N/A   Clear
5:37 AM 39.9 °F - 37.9 °F 93% 30.37 in 9.0 mi Calm Calm - N/A   Partly Cloudy
5:53 AM 39.0 °F - 37.0 °F 93% 30.38 in 5.0 mi Calm Calm - N/A   Clear
6:13 AM 37.9 °F - 36.0 °F 93% 30.37 in 7.0 mi Calm Calm - N/A   Scattered Clouds
6:22 AM 39.0 °F - 37.0 °F 93% 30.37 in 9.0 mi Calm Calm - N/A   Mostly Cloudy
6:33 AM 39.0 °F - 37.0 °F 93% 30.37 in 10.0 mi Calm Calm - N/A   Overcast
6:48 AM 39.2 °F 37.0 °F 37.4 °F 93% 30.36 in 1.5 mi North 3.5 mph - N/A   Overcast
6:53 AM 39.9 °F 35.8 °F 37.9 °F 93% 30.37 in 0.8 mi North 5.8 mph - N/A   Overcast
7:31 AM 39.9 °F 37.8 °F 39.0 °F 97% 30.36 in 1.0 mi NNE 3.5 mph - N/A   Mist
7:40 AM 39.9 °F - 39.0 °F 97% 30.36 in 0.8 mi Calm Calm - N/A   Mist
7:53 AM 39.9 °F - 39.0 °F 97% 30.36 in 0.8 mi Calm Calm - N/A Fog Fog
8:53 AM 41.0 °F - 39.0 °F 93% 30.36 in 1.0 mi Calm Calm - N/A   Overcast
9:53 AM 41.0 °F 39.0 °F 39.0 °F 93% 30.35 in 1.0 mi SSW 3.5 mph - N/A   Overcast
9:59 AM 41.0 °F - 39.9 °F 96% 30.35 in 2.0 mi Calm Calm - N/A   Overcast
10:50 AM 44.6 °F - 39.2 °F 81% 30.33 in 3.0 mi Calm Calm - N/A   Mostly Cloudy
10:53 AM 45.0 °F - 39.9 °F 82% 30.33 in 3.0 mi Calm Calm - N/A   Haze
11:30 AM 45.0 °F 41.8 °F 39.9 °F 82% 30.32 in 10.0 mi WNW 5.8 mph - N/A   Scattered Clouds
11:53 AM 46.9 °F - 39.9 °F 77% 30.32 in 10.0 mi WSW 5.8 mph - N/A   Partly Cloudy
12:53 PM 48.0 °F - 39.0 °F 71% 30.30 in 10.0 mi WSW 3.5 mph - N/A   Clear
1:53 PM 52.0 °F - 42.1 °F 69% 30.28 in 10.0 mi Calm Calm - N/A   Clear
2:53 PM 54.0 °F - 39.0 °F 57% 30.23 in 10.0 mi Calm Calm - N/A   Clear
3:53 PM 57.9 °F - 33.1 °F 39% 30.20 in 10.0 mi East 3.5 mph - N/A   Clear
4:53 PM 60.1 °F - 32.0 °F 35% 30.19 in 10.0 mi Calm Calm - N/A   Clear
5:53 PM 59.0 °F - 33.1 °F 38% 30.17 in 10.0 mi Calm Calm - N/A   Clear
6:53 PM 57.9 °F - 35.1 °F 42% 30.17 in 10.0 mi NNE 3.5 mph - N/A   Clear
7:53 PM 53.1 °F - 37.0 °F 55% 30.18 in 10.0 mi NE 6.9 mph - N/A   Clear
8:53 PM 48.0 °F - 37.9 °F 68% 30.18 in 10.0 mi Calm Calm - N/A   Clear
9:53 PM 50.0 °F - 36.0 °F 59% 30.17 in 10.0 mi Calm Calm - N/A   Clear
10:53 PM 45.0 °F - 37.9 °F 76% 30.18 in 10.0 mi Calm Calm - N/A   Scattered Clouds
11:53 PM 45.0 °F 41.8 °F 37.0 °F 74% 30.19 in 10.0 mi NNW 5.8 mph - N/A   Clear